LOT010 EPGD-EPKT

Flight info

Callsign LOT010
Flight time 0h 48m
Altitude 31000
Route IRLUN N133 NEGUV M66 KUKAM
Aircraft A320/M-KR/GDN

Departure

Time 2026-04-28 18:36
Airport Gdańsk Lech Wałęsa Airport (EPGD)

Arrival

Time 2026-04-28 19:24
Airport Katowice Wojciech Korfanty International Airport (EPKT)
Time Latitude Longitude Altitude Speed Heading
2026-04-28 18:18 54.38131 18.46559 453 ft 0 kts 21°
2026-04-28 18:27 54.38122 18.46553 450 ft 4 kts 20°
2026-04-28 18:27 54.38097 18.46537 452 ft 4 kts 45°
2026-04-28 18:27 54.38087 18.46507 451 ft 0 kts 90°
2026-04-28 18:28 54.38086 18.46522 453 ft 0 kts 94°
2026-04-28 18:29 54.38082 18.46538 452 ft 3 kts 112°
2026-04-28 18:29 54.38073 18.46584 453 ft 6 kts 117°
2026-04-28 18:29 54.38031 18.46614 453 ft 8 kts 180°
2026-04-28 18:30 54.37972 18.46587 453 ft 8 kts 168°
2026-04-28 18:30 54.37943 18.46632 453 ft 9 kts 111°
2026-04-28 18:30 54.37900 18.46792 452 ft 13 kts 119°
2026-04-28 18:30 54.37856 18.46945 453 ft 16 kts 111°
2026-04-28 18:31 54.37814 18.47133 453 ft 18 kts 112°
2026-04-28 18:31 54.37759 18.47345 452 ft 21 kts 114°
2026-04-28 18:31 54.37699 18.47578 453 ft 22 kts 113°
2026-04-28 18:31 54.37638 18.47825 459 ft 23 kts 112°
2026-04-28 18:32 54.37577 18.48077 461 ft 24 kts 112°
2026-04-28 18:32 54.37512 18.48341 465 ft 23 kts 112°
2026-04-28 18:32 54.37452 18.48586 473 ft 21 kts 112°
2026-04-28 18:32 54.37399 18.48800 476 ft 19 kts 113°
2026-04-28 18:33 54.37347 18.49009 487 ft 18 kts 113°
2026-04-28 18:33 54.37298 18.49207 487 ft 18 kts 116°
2026-04-28 18:33 54.37256 18.49262 489 ft 1 kts 157°
2026-04-28 18:33 54.37242 18.49266 493 ft 3 kts 179°
2026-04-28 18:34 54.37224 18.49258 493 ft 0 kts 199°
2026-04-28 18:34 54.37211 18.49250 493 ft 3 kts 200°
2026-04-28 18:34 54.37186 18.49223 493 ft 5 kts 221°
2026-04-28 18:34 54.37162 18.49161 490 ft 9 kts 243°
2026-04-28 18:35 54.37160 18.49020 483 ft 15 kts 289°
2026-04-28 18:35 54.37230 18.48740 484 ft 57 kts 292°
2026-04-28 18:35 54.37499 18.47643 459 ft 137 kts 292°
2026-04-28 18:35 54.37922 18.45903 787 ft 173 kts 295°
2026-04-28 18:36 54.38412 18.43851 1365 ft 197 kts 296°
2026-04-28 18:36 54.38925 18.41750 2509 ft 185 kts 297°
2026-04-28 18:36 54.39465 18.39632 3167 ft 204 kts 297°
2026-04-28 18:36 54.40054 18.37327 4000 ft 213 kts 297°
2026-04-28 18:37 54.40646 18.34973 4988 ft 220 kts 297°
2026-04-28 18:37 54.41252 18.32531 5112 ft 221 kts 296°
2026-04-28 18:37 54.41852 18.30086 5240 ft 223 kts 296°
2026-04-28 18:37 54.42459 18.27602 5856 ft 225 kts 296°
2026-04-28 18:38 54.43048 18.25146 6997 ft 220 kts 294°
2026-04-28 18:38 54.43259 18.22517 7943 ft 232 kts 268°
2026-04-28 18:38 54.42660 18.19866 8815 ft 250 kts 238°
2026-04-28 18:38 54.41280 18.17914 9668 ft 266 kts 210°
2026-04-28 18:39 54.39555 18.16649 10568 ft 271 kts 205°
2026-04-28 18:39 54.37773 18.15524 11408 ft 276 kts 205°
2026-04-28 18:39 54.35868 18.14798 12135 ft 289 kts 181°
2026-04-28 18:39 54.33893 18.15522 12873 ft 298 kts 153°
2026-04-28 18:40 54.32204 18.17611 13521 ft 305 kts 131°
2026-04-28 18:40 54.30765 18.20445 13803 ft 328 kts 124°
2026-04-28 18:40 54.29279 18.23587 14064 ft 354 kts 130°
2026-04-28 18:40 54.27295 18.26332 14308 ft 380 kts 148°
2026-04-28 18:41 54.24842 18.28263 14711 ft 394 kts 159°
2026-04-28 18:41 54.22219 18.29751 15398 ft 399 kts 162°
2026-04-28 18:41 54.19566 18.31249 16067 ft 405 kts 162°
2026-04-28 18:41 54.16868 18.32785 16679 ft 414 kts 162°
2026-04-28 18:42 54.14123 18.34342 17354 ft 418 kts 162°
2026-04-28 18:42 54.11347 18.35908 17951 ft 424 kts 162°
2026-04-28 18:42 54.08530 18.37488 18681 ft 427 kts 163°
2026-04-28 18:42 54.05700 18.39069 19285 ft 431 kts 163°
2026-04-28 18:43 54.02839 18.40662 19913 ft 433 kts 163°
2026-04-28 18:43 53.99967 18.42256 20543 ft 437 kts 163°
2026-04-28 18:43 53.97064 18.43864 21145 ft 440 kts 163°
2026-04-28 18:43 53.94145 18.45476 21766 ft 444 kts 163°
2026-04-28 18:44 53.91193 18.47105 22361 ft 447 kts 163°
2026-04-28 18:44 53.85230 18.50386 23543 ft 454 kts 163°
2026-04-28 18:44 53.82212 18.52042 24040 ft 457 kts 163°
2026-04-28 18:45 53.79184 18.53704 24595 ft 458 kts 163°
2026-04-28 18:45 53.76137 18.55372 25084 ft 461 kts 163°
2026-04-28 18:45 53.73079 18.57045 25559 ft 465 kts 163°
2026-04-28 18:45 53.69983 18.58735 26011 ft 468 kts 163°
2026-04-28 18:46 53.66883 18.60425 26499 ft 470 kts 163°
2026-04-28 18:46 53.63767 18.62119 26942 ft 473 kts 163°
2026-04-28 18:46 53.60625 18.63825 27371 ft 476 kts 163°
2026-04-28 18:46 53.57460 18.65540 27800 ft 478 kts 163°
2026-04-28 18:47 53.54294 18.67253 28237 ft 480 kts 163°
2026-04-28 18:47 53.51099 18.68982 28678 ft 480 kts 163°
2026-04-28 18:47 53.47910 18.70707 29077 ft 483 kts 163°
2026-04-28 18:47 53.44715 18.72430 29423 ft 485 kts 164°
2026-04-28 18:48 53.41484 18.74168 29801 ft 487 kts 164°
2026-04-28 18:48 53.38255 18.75901 30170 ft 490 kts 164°
2026-04-28 18:48 53.34998 18.77647 30491 ft 492 kts 164°
2026-04-28 18:48 53.31730 18.79395 30795 ft 494 kts 164°
2026-04-28 18:49 53.28434 18.81158 31058 ft 499 kts 164°
2026-04-28 18:49 53.27328 18.81749 31137 ft 500 kts 164°
2026-04-28 18:49 53.18542 18.86448 31208 ft 496 kts 164°
2026-04-28 18:50 53.11976 18.89945 31210 ft 496 kts 164°
2026-04-28 18:50 53.05408 18.93429 31205 ft 496 kts 164°
2026-04-28 18:51 52.98835 18.96906 31204 ft 495 kts 164°
2026-04-28 18:51 52.92269 19.00367 31201 ft 494 kts 164°
2026-04-28 18:52 52.85710 19.03811 31211 ft 495 kts 164°
2026-04-28 18:52 52.79145 19.07247 31209 ft 495 kts 165°
2026-04-28 18:53 52.73691 19.10090 31204 ft 495 kts 165°
2026-04-28 18:53 52.67126 19.13500 31195 ft 494 kts 165°
2026-04-28 18:54 52.60560 19.16900 31200 ft 494 kts 165°
2026-04-28 18:54 52.54012 19.20280 31203 ft 494 kts 165°
2026-04-28 18:55 52.47465 19.23647 31203 ft 493 kts 165°
2026-04-28 18:55 52.40913 19.27007 31176 ft 494 kts 165°
2026-04-28 18:56 52.34355 19.30362 31202 ft 493 kts 165°
2026-04-28 18:56 52.27803 19.33701 31200 ft 493 kts 165°
2026-04-28 18:57 52.21260 19.37024 31209 ft 493 kts 165°
2026-04-28 18:57 52.14713 19.40338 31207 ft 493 kts 165°
2026-04-28 18:58 52.08168 19.43646 31202 ft 492 kts 165°
2026-04-28 18:58 52.01624 19.46942 31160 ft 493 kts 165°
2026-04-28 18:59 51.98343 19.48590 30957 ft 493 kts 165°
2026-04-28 18:59 51.95118 19.50208 30528 ft 491 kts 165°
2026-04-28 18:59 51.91867 19.51836 29968 ft 487 kts 165°
2026-04-28 18:59 51.88618 19.53460 29366 ft 481 kts 165°
2026-04-28 19:00 51.85426 19.55054 28780 ft 475 kts 165°
2026-04-28 19:00 51.82288 19.56618 28203 ft 470 kts 165°
2026-04-28 19:00 51.79178 19.58165 27638 ft 468 kts 165°
2026-04-28 19:00 51.76075 19.59705 27084 ft 465 kts 165°
2026-04-28 19:01 51.73027 19.61217 26543 ft 461 kts 165°
2026-04-28 19:01 51.69973 19.62729 26008 ft 457 kts 165°
2026-04-28 19:01 51.66947 19.64224 25590 ft 452 kts 165°
2026-04-28 19:01 51.63947 19.65703 25486 ft 452 kts 165°
2026-04-28 19:02 51.60942 19.67182 25388 ft 455 kts 165°
2026-04-28 19:02 51.57921 19.68670 25265 ft 453 kts 165°
2026-04-28 19:02 51.54913 19.70153 25214 ft 451 kts 165°
2026-04-28 19:02 51.51910 19.71630 25214 ft 451 kts 165°
2026-04-28 19:03 51.48905 19.73105 25201 ft 451 kts 165°
2026-04-28 19:03 51.45898 19.74577 25203 ft 451 kts 165°
2026-04-28 19:03 51.42897 19.76045 25216 ft 451 kts 165°
2026-04-28 19:03 51.39890 19.77513 25214 ft 451 kts 165°
2026-04-28 19:04 51.36892 19.78975 25208 ft 451 kts 165°
2026-04-28 19:04 51.33886 19.80438 25200 ft 451 kts 165°
2026-04-28 19:04 51.30885 19.81897 25185 ft 451 kts 166°
2026-04-28 19:04 51.27878 19.83359 25199 ft 451 kts 166°
2026-04-28 19:05 51.24865 19.84822 25020 ft 451 kts 166°
2026-04-28 19:05 51.21868 19.86276 24578 ft 451 kts 166°
2026-04-28 19:05 51.18882 19.87722 24073 ft 447 kts 166°
2026-04-28 19:05 51.15928 19.89150 23516 ft 443 kts 166°
2026-04-28 19:06 51.12994 19.90565 22891 ft 438 kts 166°
2026-04-28 19:06 51.11064 19.91495 22512 ft 435 kts 166°
2026-04-28 19:06 51.07212 19.93347 21726 ft 430 kts 166°
2026-04-28 19:06 51.04357 19.94718 21131 ft 426 kts 166°
2026-04-28 19:07 51.01527 19.96075 20565 ft 423 kts 166°
2026-04-28 19:07 50.98730 19.97414 20012 ft 419 kts 166°
2026-04-28 19:07 50.95949 19.98744 19472 ft 416 kts 166°
2026-04-28 19:07 50.93181 20.00066 18935 ft 412 kts 166°
2026-04-28 19:08 50.90443 20.01353 18392 ft 408 kts 168°
2026-04-28 19:08 50.87693 20.02004 17778 ft 390 kts 184°
2026-04-28 19:08 50.85085 20.01507 17195 ft 370 kts 201°
2026-04-28 19:08 50.82811 19.99981 16630 ft 351 kts 217°
2026-04-28 19:09 50.80934 19.97624 16065 ft 332 kts 233°
2026-04-28 19:09 50.79578 19.94785 15490 ft 317 kts 246°
2026-04-28 19:09 50.78728 19.91716 14956 ft 304 kts 258°
2026-04-28 19:09 50.78162 19.88509 14458 ft 303 kts 259°
2026-04-28 19:10 50.77587 19.85203 13987 ft 320 kts 258°
2026-04-28 19:10 50.76978 19.81809 13499 ft 326 kts 257°
2026-04-28 19:10 50.76329 19.78351 13018 ft 323 kts 257°
2026-04-28 19:10 50.75686 19.75003 12548 ft 320 kts 257°
2026-04-28 19:11 50.75038 19.71661 12082 ft 317 kts 256°
2026-04-28 19:11 50.74396 19.68354 11623 ft 313 kts 256°
2026-04-28 19:11 50.73759 19.65080 11178 ft 311 kts 256°
2026-04-28 19:11 50.73118 19.61779 10722 ft 311 kts 256°
2026-04-28 19:12 50.72495 19.58568 10285 ft 309 kts 256°
2026-04-28 19:12 50.71865 19.55330 10162 ft 304 kts 256°
2026-04-28 19:12 50.71233 19.52083 9861 ft 311 kts 255°
2026-04-28 19:12 50.70609 19.48884 9420 ft 307 kts 255°
2026-04-28 19:13 50.69985 19.45691 8993 ft 303 kts 255°
2026-04-28 19:13 50.69366 19.42526 8577 ft 303 kts 255°
2026-04-28 19:13 50.68746 19.39352 8157 ft 302 kts 255°
2026-04-28 19:13 50.68131 19.36208 7743 ft 298 kts 254°
2026-04-28 19:14 50.67526 19.33116 7331 ft 294 kts 254°
2026-04-28 19:14 50.66927 19.30070 6922 ft 290 kts 254°
2026-04-28 19:14 50.66334 19.27046 6524 ft 286 kts 254°
2026-04-28 19:14 50.65749 19.24069 6096 ft 283 kts 254°
2026-04-28 19:15 50.65167 19.21122 5678 ft 280 kts 254°
2026-04-28 19:15 50.64591 19.18210 5260 ft 277 kts 254°
2026-04-28 19:15 50.64021 19.15327 4839 ft 274 kts 254°
2026-04-28 19:15 50.63646 19.13431 4561 ft 272 kts 253°
2026-04-28 19:16 50.62899 19.09656 4138 ft 265 kts 253°
2026-04-28 19:16 50.62364 19.06957 4060 ft 252 kts 254°
2026-04-28 19:16 50.61838 19.04312 3976 ft 258 kts 254°
2026-04-28 19:16 50.61308 19.01647 3961 ft 253 kts 254°
2026-04-28 19:17 50.60784 18.99026 3961 ft 250 kts 254°
2026-04-28 19:17 50.60258 18.96373 3963 ft 256 kts 253°
2026-04-28 19:17 50.59728 18.93716 3966 ft 251 kts 253°
2026-04-28 19:17 50.59202 18.91075 3961 ft 257 kts 253°
2026-04-28 19:18 50.58666 18.88398 3957 ft 254 kts 253°
2026-04-28 19:18 50.58133 18.85747 3957 ft 254 kts 253°
2026-04-28 19:18 50.57598 18.83082 3956 ft 256 kts 253°
2026-04-28 19:18 50.57064 18.80434 3953 ft 254 kts 253°
2026-04-28 19:19 50.56557 18.77779 3958 ft 252 kts 254°
2026-04-28 19:19 50.55665 18.75425 3951 ft 253 kts 224°
2026-04-28 19:19 50.54155 18.74167 3928 ft 244 kts 192°
2026-04-28 19:19 50.52519 18.74281 3931 ft 232 kts 162°
2026-04-28 19:20 50.51083 18.75258 3948 ft 217 kts 155°
2026-04-28 19:20 50.49697 18.76249 3953 ft 222 kts 157°
2026-04-28 19:20 50.48351 18.77352 3943 ft 213 kts 138°
2026-04-28 19:20 50.47606 18.79201 3955 ft 198 kts 98°
2026-04-28 19:21 50.47513 18.81377 3960 ft 201 kts 86°
2026-04-28 19:21 50.47558 18.83549 3751 ft 198 kts 84°
2026-04-28 19:21 50.47620 18.85697 3556 ft 195 kts 85°
2026-04-28 19:21 50.47661 18.87810 3453 ft 196 kts 86°
2026-04-28 19:22 50.47681 18.89969 3253 ft 198 kts 87°
2026-04-28 19:22 50.47685 18.91405 3116 ft 198 kts 88°
2026-04-28 19:22 50.47681 18.94249 2833 ft 194 kts 88°
2026-04-28 19:22 50.47675 18.96325 2632 ft 190 kts 89°
2026-04-28 19:23 50.47665 18.98357 2370 ft 178 kts 88°
2026-04-28 19:23 50.47654 19.00249 2043 ft 170 kts 88°
2026-04-28 19:23 50.47641 19.02049 1734 ft 165 kts 88°
2026-04-28 19:23 50.47633 19.03839 1394 ft 163 kts 88°
2026-04-28 19:24 50.47610 19.05565 1138 ft 153 kts 92°
2026-04-28 19:24 50.47597 19.07157 1027 ft 134 kts 91°
2026-04-28 19:24 50.47602 19.08444 1019 ft 98 kts 91°
2026-04-28 19:24 50.47598 19.09092 1020 ft 39 kts 90°
2026-04-28 19:25 50.47559 19.09381 1021 ft 17 kts 149°
2026-04-28 19:25 50.47492 19.09391 1020 ft 8 kts 184°
2026-04-28 19:25 50.47423 19.09387 1025 ft 12 kts 182°
2026-04-28 19:25 50.47400 19.09386 1019 ft 2 kts 182°
2026-04-28 19:26 50.47392 19.09385 1018 ft 2 kts 181°
2026-04-28 19:26 50.47362 19.09385 1020 ft 6 kts 181°
2026-04-28 19:26 50.47306 19.09383 1025 ft 10 kts 181°
2026-04-28 19:26 50.47238 19.09356 1021 ft 8 kts 245°
2026-04-28 19:27 50.47231 19.09254 1019 ft 11 kts 271°
2026-04-28 19:27 50.47232 19.09121 1017 ft 14 kts 270°
2026-04-28 19:27 50.47226 19.08961 1017 ft 16 kts 271°
2026-04-28 19:27 50.47232 19.08778 1024 ft 18 kts 274°
2026-04-28 19:28 50.47234 19.08573 1017 ft 20 kts 270°
2026-04-28 19:28 50.47233 19.08346 1014 ft 22 kts 270°
2026-04-28 19:28 50.47233 19.08102 1021 ft 23 kts 270°
2026-04-28 19:28 50.47232 19.07837 1021 ft 25 kts 269°
2026-04-28 19:29 50.47232 19.07563 1021 ft 26 kts 270°
2026-04-28 19:29 50.47233 19.07369 1021 ft 27 kts 270°
2026-04-28 19:29 50.47234 19.07076 1021 ft 0 kts 268°
2026-04-28 19:29 50.47230 19.07063 1023 ft 2 kts 238°
2026-04-28 19:30 50.47214 19.07055 1020 ft 4 kts 197°
2026-04-28 19:30 50.47176 19.07047 1015 ft 7 kts 182°
2026-04-28 19:30 50.47157 19.07046 1011 ft 0 kts 182°